Location: Newark
(41.0000°N, 28.9500°W)
Time: 02:03:55
(UTC+00:00)

N. Korean satellite - Pass Details

Date: 04 February 2020
Orbit: 456 x 505 km, 97.2° (Epoch: 25 February)

Event Time Altitude Azimuth Distance (km) Brightness Sun altitude
Rises 19:52:38 0° 206° (SSW) 2,464 10.8 -7.4°
Reaches altitude 10° 19:55:21 10° 231° (SW) 1,602 10.4 -7.9°
Maximum altitude 19:57:23 15° 267° (W) 1,340 10.2 -8.3°
Drops below altitude 10° 19:59:26 10° 304° (NW) 1,621 9.9 -8.7°
Sets 20:02:13 0° 329° (NNW) 2,514 10.4 -9.2°
